[[{"header":{"parameterUnit":"m.s-1","parameterCategory":1,"la1":30.2991,"la2":30.254,"lo1":-89.0895,"lo2":-89.0444,"dy":0.0017,"dx":0.0017,"nx":28,"ny":28,"refTime":"2023-10-03T21:00:00:Z","depth":0,"parameterNumber":2,"parameterNumberName":"U-component_of_WINDS"},"data":[0,0,0,0,0,0,0,0,0,0,0,0,0,0,0,0,0,0,0,0,0,0,0,0,0,0,0,0,0,0,0,0,0,0,0,0,0,0,0,0,0,0,0,0,0,0,0,0,0,0,0,0,0,0,0,0,0,0,-6.478,-6.478,0,-6.4713,-6.4712,-6.4711,-6.4551,-6.4548,-6.4545,-6.4542,-6.4475,-6.4476,-6.4478,0,0,0,0,0,0,0,0,0,0,0,0,0,-6.4777,-6.4778,-6.4781,-6.478,-6.4779,-6.4713,-6.4712,-6.4711,-6.4552,-6.4548,-6.4544,-6.454,-6.4475,-6.4476,-6.4478,0,0,0,0,0,0,0,0,0,0,0,0,0,-6.4751,-6.4778,-6.4781,-6.4691,-6.4683,-6.4713,-6.4712,-6.4711,-6.4553,-6.4548,-6.4543,-6.4538,-6.4474,-6.4476,-6.4478,-6.459,0,0,-6.4484,-6.4485,0,0,0,0,0,0,0,0,-6.4753,-6.4751,-6.4705,-6.4698,-6.4688,-6.4635,-6.4686,-6.467,-6.4554,-6.4602,-6.4541,-6.4536,-6.4533,-6.4529,-6.4528,-6.4587,-6.4584,-6.4484,-6.4485,-6.4486,-6.4487,0,0,0,0,0,0,0,-6.4755,-6.4754,-6.4754,-6.4705,-6.4694,-6.4656,-6.4647,-6.4682,-6.4596,-6.4598,-6.4586,-6.458,-6.4527,-6.4526,-6.4525,-6.4583,-6.4484,-6.4486,-6.4487,-6.4488,-6.4732,-6.4737,0,0,0,0,0,0,-6.4769,-6.4756,-6.4756,-6.4752,-6.4709,-6.4661,-6.465,-6.4657,-6.4595,-6.4581,-6.4584,-6.4573,-6.4525,-6.4523,-6.4522,-6.4649,-6.4486,-6.4488,-6.4489,-6.4727,-6.4734,-6.4739,0,0,0,0,0,0,-6.477,-6.4771,-6.4758,-6.4751,-6.4746,-6.4666,-6.4675,-6.4659,-6.4657,-6.4585,-6.4569,-6.4599,-6.4521,-6.4519,-6.4574,-6.4644,-6.4489,-6.4491,-6.4721,-6.4729,-6.4736,-6.4904,0,0,0,0,0,0,-6.477,-6.4772,-6.4812,-6.4753,-6.4747,-6.4811,-6.4679,-6.4661,-6.4661,-6.4645,-6.4595,-6.4582,-6.4517,-6.4572,-6.4576,-6.4644,-6.4492,-6.4714,-6.4725,-6.4734,-6.4892,-6.4917,-6.4938,0,0,0,0,0,-6.4771,-6.4862,-6.4815,-6.4816,-6.4796,-6.4815,-6.4812,-6.4735,-6.4667,-6.4708,-6.4662,-6.4583,-6.4637,-6.4579,-6.4582,-6.4652,-6.4709,-6.4722,-6.4733,-6.4881,-6.4912,-6.4937,0,0,0,0,0,0,-6.4931,-6.4852,-6.4799,-6.4874,-6.4853,-6.4788,-6.4836,-6.477,-6.4767,-6.4753,-6.4659,-6.4649,-6.4717,-6.469,-6.4627,-6.4758,-6.4661,-6.4674,-6.4772,-6.48,-6.4823,-6.4827,-6.4494,0,0,0,0,0,-6.4976,-6.4997,-6.4927,-6.5,-6.4992,-6.4917,-6.4923,-6.4866,-6.484,-6.483,-6.4788,-6.4767,-6.4779,-6.4789,-6.4796,-6.4889,-6.4876,-6.4939,-6.4962,-6.4981,-6.4993,-6.5041,-6.5068,-6.4779,-6.4778,-6.4778,0,0,-6.5067,-6.5027,-6.5046,-6.5032,-6.5008,-6.5034,-6.491,-6.4942,-6.496,-6.4835,-6.4883,-6.4853,-6.4824,-6.4899,-6.493,-6.4879,-6.507,-6.4996,-6.5012,-6.5013,-6.5056,-6.5083,-6.5108,-6.4787,-6.4785,-6.4784,0,0,-6.5246,-6.5218,-6.5275,-6.5255,-6.5221,-6.5171,-6.5186,-6.5133,-6.5107,-6.5155,-6.5062,-6.5084,-6.5106,-6.5089,-6.5084,-6.5262,-6.5189,-6.5267,-6.5386,-6.5434,-6.5457,-6.5477,-6.5539,-6.5563,-6.528,-6.528,-6.528,0,-6.5363,-6.5396,-6.5313,-6.5351,-6.5348,-6.5238,-6.5296,-6.5281,-6.5253,-6.5254,-6.5198,-6.5225,-6.5197,-6.5267,-6.5311,-6.531,-6.5324,-6.527,-6.546,-6.5479,-6.5496,-6.5555,-6.5579,-6.5289,-6.5288,-6.5287,-6.5287,0,-6.5542,-6.5567,-6.5618,-6.5593,-6.5596,-6.5645,-6.5571,-6.5585,-6.553,-6.5487,-6.5538,-6.5502,-6.55,-6.5513,-6.5459,-6.5576,-6.5546,-6.5477,-6.5376,-6.5535,-6.5588,-6.561,-6.5303,-6.53,-6.5297,-6.5295,0,0,-6.5815,-6.5746,-6.5766,-6.5754,-6.5711,-6.5729,-6.5775,-6.5773,-6.5786,-6.5772,-6.5808,-6.5832,-6.5768,-6.5762,-6.5706,-6.5749,-6.5891,-6.5674,-6.5672,-6.5715,-6.6018,-6.6069,-6.6096,-6.5845,-6.5849,-6.5852,-6.602,0,-6.5982,-6.6052,-6.5981,-6.6066,-6.6089,-6.5987,-6.6026,-6.6005,-6.5968,-6.5983,-6.5942,-6.596,-6.5875,-6.5871,-6.5909,-6.5866,-6.5951,-6.5853,-6.5877,-6.5879,-6.5884,-6.6124,-6.6176,-6.6336,-6.6041,-6.6044,-6.6047,0,-6.6183,-6.6178,-6.6266,-6.6219,-6.6226,-6.6263,-6.6256,-6.6272,-6.6248,-6.6218,-6.6214,-6.6146,-6.6189,-6.6094,-6.6152,-6.6087,-6.6094,-6.6075,-6.6079,-6.6076,-6.597,-6.6125,-6.6386,-6.6409,-6.6079,-6.6077,-6.6074,0,-6.6372,-6.6388,-6.6442,-6.6435,-6.6383,-6.6411,-6.6391,-6.6361,-6.6366,-6.6362,-6.6363,-6.6365,-6.6366,-6.6369,-6.6305,-6.6242,-6.6372,-6.6271,-6.6348,-6.635,-6.6376,-6.6375,-6.664,-6.6386,-6.6385,-6.6385,-6.6384,0,-6.6563,-6.6621,-6.6526,-6.656,-6.6622,-6.6542,-6.6607,-6.6576,-6.6552,-6.6579,-6.6492,-6.6519,-6.6434,-6.6453,-6.6404,-6.646,-6.6461,-6.6438,-6.6424,-6.6444,-6.6447,-6.6445,-6.6431,-6.6391,-6.639,-6.6389,-6.6388,0,-6.6782,-6.6722,-6.6774,-6.6721,-6.671,-6.6758,-6.6713,-6.6743,-6.6702,-6.6737,-6.6741,-6.6676,-6.6694,-6.6632,-6.664,-6.6607,-6.6688,-6.6657,-6.6696,-6.6686,-6.6765,-6.6758,-6.7035,-6.7067,-6.6796,-6.6799,-6.6801,0,-6.6906,-6.6948,-6.6901,-6.6912,-6.6897,-6.6917,-6.6921,-6.6846,-6.6854,-6.6832,-6.6865,-6.6876,-6.688,-6.6916,-6.687,-6.6876,-6.6843,-6.694,-6.6843,-6.6863,-6.6843,-6.684,-6.6844,-6.6959,-6.6962,-6.6965,-6.6967,0,-6.7133,-6.7102,-6.7111,-6.7111,-6.7119,-6.7115,-6.7105,-6.712,-6.704,-6.7054,-6.7072,-6.7076,-6.7085,-6.7098,-6.7095,-6.7076,-6.7009,-6.6999,-6.7017,-6.7036,-6.7057,-6.7045,-6.6748,-6.6992,-6.6989,-6.6988,-6.6986,-6.6985,-6.7307,-6.734,-6.7312,-6.7326,-6.7311,-6.7305,-6.7331,-6.7294,-6.7307,-6.7307,-6.7264,-6.7291,-6.7269,-6.7258,-6.7246,-6.7267,-6.7222,-6.7248,-6.7254,-6.7261,-6.7274,-6.7057,-6.7267,-6.7266,-6.7265,-6.7265,-6.7264,0,-6.7528,-6.7506,-6.752,-6.7509,-6.7521,-6.7459,-6.7446,-6.746,-6.7484,-6.7469,-6.7476,-6.7498,-6.7511,-6.7468,-6.7475,-6.75,-6.747,-6.7505,-6.75,-6.7497,-6.7315,-6.7298,-6.7529,-6.7529,-6.7529,-6.7529,-6.7529,-6.7529,-6.7644,-6.7696,-6.7663,-6.7708,-6.7686,-6.7711,-6.7709,-6.7704,-6.7692,-6.772,-6.773,-6.7702,-6.7676,-6.7681,-6.7691,-6.7678,-6.7684,-6.773,-6.7706,-6.7536,-6.751,-6.7485,-6.7469,-6.7732,-6.7732,-6.7886,-6.7888,-6.7889]},{"header":{"parameterUnit":"m.s-1","parameterCategory":1,"la1":30.2991,"la2":30.254,"lo1":-89.0895,"lo2":-89.0444,"dy":0.0017,"dx":0.0017,"nx":28,"ny":28,"refTime":"2023-10-03T21:00:00:Z","depth":0,"parameterNumber":3,"parameterNumberName":"V-component_of_WINDS"},"data":[0,0,0,0,0,0,0,0,0,0,0,0,0,0,0,0,0,0,0,0,0,0,0,0,0,0,0,0,0,0,0,0,0,0,0,0,0,0,0,0,0,0,0,0,0,0,0,0,0,0,0,0,0,0,0,0,0,0,1.5586,1.5586,0,1.559,1.559,1.559,1.5649,1.5651,1.5652,1.5654,1.5651,1.565,1.5648,0,0,0,0,0,0,0,0,0,0,0,0,0,1.5628,1.5627,1.5586,1.5586,1.5586,1.559,1.559,1.559,1.5649,1.5651,1.5653,1.5655,1.5652,1.565,1.5648,0,0,0,0,0,0,0,0,0,0,0,0,0,1.5618,1.5627,1.5586,1.5617,1.5619,1.559,1.559,1.559,1.5649,1.5651,1.5653,1.5656,1.5652,1.565,1.5648,1.5588,0,0,1.5641,1.564,0,0,0,0,0,0,0,0,1.5619,1.5617,1.5612,1.5614,1.5618,1.5622,1.5604,1.5589,1.5648,1.5637,1.5654,1.5657,1.5639,1.5638,1.5634,1.5588,1.5587,1.5641,1.564,1.5639,1.5638,0,0,0,0,0,0,0,1.5619,1.5617,1.5587,1.5612,1.5615,1.5629,1.563,1.5601,1.5625,1.5638,1.5643,1.5643,1.5641,1.5636,1.5634,1.5587,1.5641,1.5639,1.5638,1.5637,1.5494,1.5492,0,0,0,0,0,0,1.5617,1.5617,1.5587,1.5588,1.5624,1.5626,1.5628,1.5618,1.5626,1.5629,1.5641,1.5646,1.5638,1.5636,1.5634,1.5565,1.5639,1.5636,1.5635,1.5497,1.5494,1.5491,0,0,0,0,0,0,1.5617,1.5613,1.5587,1.5604,1.5601,1.5623,1.5612,1.5617,1.5611,1.5627,1.5632,1.5631,1.564,1.5637,1.56,1.5565,1.5635,1.5633,1.5499,1.5496,1.5492,1.5425,0,0,0,0,0,0,1.5618,1.5613,1.5591,1.5603,1.56,1.5553,1.561,1.5615,1.5608,1.5614,1.5619,1.5622,1.5642,1.5603,1.5597,1.5563,1.5632,1.5503,1.5498,1.5494,1.543,1.5419,1.541,0,0,0,0,0,1.5619,1.557,1.5589,1.5586,1.5573,1.5551,1.555,1.5575,1.5605,1.5582,1.5593,1.5622,1.5571,1.5598,1.5593,1.5558,1.5505,1.5499,1.5494,1.5434,1.5421,1.541,0,0,0,0,0,0,1.5551,1.5572,1.5594,1.5547,1.5547,1.5561,1.5533,1.556,1.555,1.5555,1.5586,1.5586,1.5544,1.5548,1.5578,1.5501,1.5543,1.5536,1.55,1.5487,1.5477,1.5476,1.563,0,0,0,0,0,1.5531,1.5513,1.5532,1.5488,1.5488,1.5511,1.5502,1.5522,1.5522,1.5522,1.553,1.5528,1.5512,1.55,1.5486,1.5432,1.5434,1.5405,1.5395,1.5387,1.538,1.5353,1.534,1.5473,1.5473,1.5473,0,0,1.5487,1.5497,1.5483,1.5475,1.5477,1.5457,1.551,1.5486,1.5471,1.5518,1.5483,1.5489,1.5489,1.5444,1.5424,1.5445,1.5344,1.538,1.5373,1.5371,1.5346,1.5333,1.5322,1.5469,1.547,1.5471,0,0,1.5399,1.5405,1.537,1.5373,1.5377,1.5393,1.5385,1.5396,1.5403,1.537,1.5405,1.5387,1.5358,1.5357,1.5353,1.5268,1.5294,1.5263,1.5209,1.5182,1.5172,1.5162,1.5132,1.512,1.5256,1.5256,1.5256,0,1.5344,1.5316,1.5348,1.5323,1.5318,1.5364,1.5328,1.5329,1.5327,1.5322,1.5347,1.5314,1.5316,1.5272,1.5252,1.5247,1.5238,1.5261,1.5171,1.5162,1.5154,1.5125,1.5113,1.5252,1.5253,1.5253,1.5253,0,1.5249,1.523,1.5201,1.5202,1.5194,1.5163,1.519,1.5178,1.52,1.5213,1.5179,1.5186,1.5174,1.5166,1.5185,1.5124,1.5137,1.5166,1.5208,1.5137,1.511,1.5099,1.5246,1.5248,1.5249,1.525,0,0,1.5113,1.5135,1.5124,1.5126,1.5136,1.512,1.5093,1.5084,1.5073,1.5072,1.5049,1.5025,1.5053,1.5048,1.5068,1.5045,1.4978,1.5077,1.5077,1.5057,1.4911,1.4888,1.4875,1.4997,1.4995,1.4993,1.4911,0,1.5028,1.4983,1.5012,1.4962,1.4944,1.4989,1.4965,1.4968,1.4981,1.4967,1.498,1.4963,1.5001,1.4999,1.4978,1.499,1.4948,1.4997,1.4974,1.4972,1.497,1.4861,1.4836,1.4758,1.4901,1.4899,1.4898,0,1.492,1.4917,1.4866,1.4882,1.4876,1.4853,1.4849,1.4836,1.4841,1.4852,1.4848,1.4875,1.4849,1.4893,1.4856,1.4888,1.4881,1.4886,1.4884,1.4881,1.4929,1.4853,1.4733,1.4721,1.4881,1.4883,1.4884,0,1.4826,1.4809,1.4777,1.4777,1.4794,1.4778,1.4784,1.4792,1.4785,1.4781,1.4778,1.477,1.4765,1.4758,1.4782,1.4812,1.4742,1.4788,1.4749,1.4748,1.473,1.4731,1.4606,1.4728,1.4728,1.4729,1.4729,0,1.4726,1.4693,1.4735,1.4714,1.4679,1.4714,1.4677,1.4688,1.4695,1.4677,1.4715,1.4697,1.4731,1.4716,1.4735,1.4702,1.47,1.4707,1.4712,1.4703,1.4702,1.4697,1.4702,1.4725,1.4726,1.4727,1.4727,0,1.4613,1.464,1.4608,1.4629,1.4634,1.4606,1.4623,1.4605,1.4622,1.4599,1.4596,1.4622,1.4607,1.4632,1.4619,1.4632,1.4585,1.4599,1.4584,1.4588,1.4547,1.455,1.4413,1.4397,1.4531,1.453,1.4528,0,1.4547,1.4523,1.4542,1.4534,1.4539,1.4525,1.452,1.4554,1.4547,1.4553,1.4534,1.4523,1.4516,1.449,1.4506,1.4497,1.4511,1.4464,1.4509,1.4501,1.4509,1.451,1.4507,1.4453,1.4452,1.445,1.4449,0,1.4426,1.4441,1.4433,1.4431,1.4424,1.4423,1.4425,1.4415,1.4452,1.4442,1.4428,1.4423,1.4413,1.4401,1.4397,1.4402,1.4431,1.4436,1.4426,1.4415,1.4407,1.441,1.4557,1.4438,1.4439,1.444,1.444,1.4441,1.4334,1.4315,1.4327,1.4317,1.4323,1.4324,1.4308,1.4325,1.4315,1.431,1.4331,1.4313,1.4321,1.4319,1.4321,1.4307,1.4328,1.4314,1.431,1.4306,1.4299,1.4411,1.4307,1.4307,1.4307,1.4308,1.4308,0,1.4214,1.4225,1.4216,1.4219,1.4211,1.4243,1.4247,1.4238,1.4223,1.4228,1.4222,1.4207,1.4197,1.4214,1.4207,1.4192,1.4206,1.4189,1.419,1.419,1.4281,1.429,1.4179,1.4179,1.4179,1.4179,1.4179,1.4179,1.4151,1.4122,1.4139,1.4113,1.4123,1.4108,1.4108,1.4109,1.4114,1.4097,1.4089,1.4102,1.4112,1.4107,1.4099,1.4104,1.4099,1.4078,1.4087,1.4171,1.4184,1.4196,1.4204,1.4076,1.4076,1.3997,1.3997,1.3996]}]]